sat.trackr.live / text

‹ back to catalog

GEESAT-5 03

NORAD 65552 · 2025-201C

PAYLOAD ACTIVE UNKNOWN

§ Identity

Operator
Country
PRC
Launch date
2025-09-08
Launch site
YSLA
Launch vehicle
Mass (kg)
RCS (m²)

External: N2YO · Heavens-Above · Gunter

§ Orbital elements

Epoch: 2026-09-20T09:06:03.546144Z

Period
97.01 min
Inclination
49.9890°
Eccentricity
0.0010941
Mean motion
14.84369794 rev/d
Perigee alt
607.9 km
Apogee alt
623.2 km
Semi-major
6,993.7 km
B*
1.2740e-4
RAAN
317.6701°
Arg perigee
267.9068°
Mean anomaly
92.0618°
Rev number
5,593

§ Raw data

GEESAT-5 031 65552U 25201C   26263.37920771  .00000853  00000+0  12740-3 0  99902 65552  49.9890 317.6701 0010941 267.9068  92.0618 14.84369794 55935

JSON: /api/v1/satellites/65552 · /tle

For live sub-satellite position, see the globe view (requires WebGL).

§ Visibility from observer

Set your observer location to see the next 7 days of passes ≥ 10°. The values pass through the URL so the page stays shareable.

No JS? Fill the form by hand. The geolocation button needs JavaScript.